W0ZMA Weather Reports


Display with metric or nautical units.
time (UTC)temp
F
wind
direction
speed
MPH
gust
MPH
rain 1hr
in
rain 24hr
in
rain mn
in
humidity
%
barometer
mb
20260502204534 61 207 0.0 2.0 0.00 0.00 0.00 60 1014.6
20260502203030 60 184 0.0 2.0 0.00 0.00 0.00 61 1014.6
20260502201528 59 185 0.0 5.0 0.00 0.00 0.00 61 1014.9
20260502200028 61 308 2.0 12.0 0.00 0.00 0.00 53 1015.8
20260502194529 63 209 1.0 10.0 0.00 0.00 0.00 47 1015.2
20260502193026 64 245 0.0 7.0 0.00 0.00 0.00 48 1015.1
20260502191526 65 40 0.0 1.0 0.00 0.00 0.00 46 1015.0
20260502190024 65 141 0.0 2.0 0.00 0.00 0.00 44 1015.1
20260502184527 66 193 0.0 5.0 0.00 0.00 0.00 41 1015.4
20260502183021 65 323 1.0 6.0 0.00 0.00 0.00 45 1015.6
20260502181521 65 284 0.0 9.0 0.00 0.00 0.00 43 1015.8
20260502163009 63 252 0.0 1.0 0.00 0.61 0.00 45 1016.9
20260502161504 62 249 0.0 3.0 0.00 0.61 0.00 38 1017.2
20260502151603 61 202 0.0 2.0 0.00 1.39 0.00 53 1017.1
20260502150103 60 201 0.0 2.0 0.00 1.39 0.00 55 1017.0
20260502123017 41 238 0.0 0.0 0.00 1.39 0.00 95 1016.5
20260502121517 40 238 0.0 0.0 0.00 1.39 0.00 95 1016.3
20260502114515 39 238 0.0 0.0 0.00 1.39 0.00 93 1016.2
20260502113012 39 238 0.0 0.0 0.00 1.39 0.00 92 1015.9
20260502111510 39 238 0.0 0.0 0.00 1.39 0.00 91 1015.8
20260502110008 40 238 0.0 0.0 0.00 1.39 0.00 91 1015.8
20260502104507 40 238 0.0 0.0 0.00 1.39 0.00 90 1015.7
20260502103010 40 238 0.0 0.0 0.00 1.39 0.00 90 1015.5
20260502101502 41 238 0.0 0.0 0.00 1.39 0.00 89 1015.5
20260502070048 46 238 0.0 0.0 0.00 1.39 0.00 79 1015.8
20260502064542 46 238 0.0 0.0 0.00 1.39 0.00 79 1016.1
20260502063038 47 238 0.0 0.0 0.00 1.39 0.00 77 1016.1
20260502061534 47 238 0.0 0.0 0.00 1.39 0.00 76 1016.3
20260502060034 47 238 0.0 0.0 0.00 1.39 0.00 76 1016.5
20260502054535 47 238 0.0 0.0 0.00 1.39 0.00 75 1016.5
20260502053030 47 238 0.0 0.0 0.00 1.39 0.00 74 1016.3
20260502051531 47 238 0.0 0.0 0.00 1.39 0.00 73 1016.1
20260502050032 47 238 0.0 0.0 0.00 1.39 0.00 72 1015.9
20260502044525 48 238 0.0 0.0 0.00 1.39 1.39 72 1015.6
20260502043025 48 238 0.0 0.0 0.00 1.39 1.39 71 1015.6
20260502041524 48 238 0.0 0.0 0.00 1.39 1.39 70 1015.7
20260502040033 49 238 0.0 0.0 0.00 1.39 1.39 68 1016.1
20260502034523 49 238 0.0 0.0 0.00 1.39 1.39 67 1016.3
20260502033022 50 238 0.0 0.0 0.00 1.39 1.39 67 1016.7
20260502031523 50 238 0.0 0.0 0.00 1.39 1.39 67 1017.0
20260502030022 50 238 0.0 0.0 0.00 1.39 1.39 66 1016.9
20260502024535 50 238 0.0 0.0 0.00 1.39 1.39 68 1016.7
20260502023020 51 238 0.0 0.0 0.00 1.39 1.39 65 1017.0
20260502021516 51 238 0.0 0.0 0.00 1.39 1.39 66 1016.3
20260502020016 51 238 0.0 0.0 0.00 1.39 1.39 66 1016.2
20260502014525 52 238 0.0 0.0 0.00 1.41 1.39 63 1016.0
20260502013014 52 238 0.0 0.0 0.00 1.41 1.39 64 1016.0
20260502011514 53 238 0.0 0.0 0.00 1.41 1.39 63 1015.5
20260502010012 54 238 0.0 0.0 0.00 1.41 1.39 60 1015.3
20260502004513 55 238 0.0 0.0 0.00 1.67 1.39 57 1015.2
20260502003012 57 241 0.0 0.0 0.00 1.67 1.39 56 1014.9
20260502001511 57 240 0.0 0.0 0.00 1.67 1.39 54 1014.7
20260502000011 58 245 0.0 0.0 0.00 1.67 1.39 52 1014.4
20260501234513 59 317 0.0 1.0 0.00 1.67 1.39 48 1014.0
20260501233010 60 230 0.0 2.0 0.00 1.67 1.39 47 1013.8
20260501231510 61 287 0.0 6.0 0.00 1.67 1.39 47 1013.7
20260501230009 61 196 0.0 1.0 0.00 1.67 1.39 44 1013.6
20260501224513 62 199 0.0 1.0 0.00 1.67 1.39 41 1013.5
20260501223007 63 234 0.0 4.0 0.00 1.67 1.39 41 1013.3
20260501221507 63 263 0.0 5.0 0.00 1.67 1.39 39 1013.1
20260501220010 63 262 0.0 2.0 0.00 1.67 1.39 43 1013.3
20260501214509 63 287 0.0 2.0 0.00 1.90 1.39 42 1013.2
20260501213005 63 236 0.0 4.0 0.00 1.90 1.39 42 1013.3
20260501211503 63 295 0.0 6.0 0.00 1.90 1.39 46 1013.5
20260501210003 63 287 0.0 6.0 0.00 1.90 1.39 44 1013.7